Regional Weather Roundup
Issued by NWS Little Rock, AR

Home | Current Version | Previous Version | Text Only | Print | Product List | Glossary Off
Versions: 1 2 3 4 5 6 7 8 9 10 11 12 13 14 15 16 17 18 19 20 21 22 23 24 25 26 27 28 29 30 31 32 33 34 35 36 37 38 39 40 41 42 43 44 45 46 47 48 49 50

877
ASUS44 KLZK 282205
RWRLZK

WEATHER ROUNDUP FOR ARKANSAS
NATIONAL WEATHER SERVICE LITTLE ROCK AR
500 PM CDT TUE MAR 28 2017

NOTE: "FAIR" INDICATES FEW OR NO CLOUDS BELOW 12,000 FEET WITH NO
SIGNIFICANT WEATHER AND/OR OBSTRUCTIONS TO VISIBILITY.

ARZ001-003-010-029-282300-
NORTHWEST ARKANSAS

CITY           SKY/WX    TMP DP  RH WIND       PRES   REMARKS
FAYETTEVILLE   MOSUNNY   76  55  48 S9G17     29.84F
FORT SMITH     MOSUNNY   77  57  50 SE10      29.82F
HARRISON       SUNNY     70  54  56 E9        29.91F
BENTONVILLE    SUNNY     75  54  46 E9G17     29.87S
ROGERS         SUNNY     73  54  51 E7        29.87F
SILOAM SPGS    SUNNY     75  54  46 E3G16     29.84F
HIGHFILL       SUNNY     75  55  49 E9        29.85F
SPRINGDALE     SUNNY     75  55  50 E8        29.86F
$$

ARZ004-005-016-282300-
NORTH CENTRAL ARKANSAS

CITY           SKY/WX    TMP DP  RH WIND       PRES   REMARKS
BATESVILLE     CLOUDY    68  55  64 E10       29.96S
FLIPPIN        SUNNY     72  50  46 E10       29.90F
MTN HOME       SUNNY     69  51  52 SE9       29.92F
$$

ARZ040-041-282300-
WEST CENTRAL ARKANSAS

CITY           SKY/WX    TMP DP  RH WIND       PRES   REMARKS
MENA           CLOUDY    75  64  69 SE5       29.86F
MOUNT IDA      CLOUDY    74  60  61 SE8       29.85F
$$

ARZ009-017-025-026-028-282300-
NORTHEAST ARKANSAS

CITY           SKY/WX    TMP DP  RH WIND       PRES   REMARKS
CORNING        FAIR      66  55  68 NE10      29.99F
JONESBORO      SUNNY     68  56  65 E15       29.96F
NEWPORT        MOSUNNY   69  59  70 NE10      29.95F
WALNUT RIDGE   SUNNY     66  54  63 NE13      29.97F
BLYTHEVILLE    SUNNY     69  57  65 NE12      29.98F
$$

ARZ022-023-033-042-044-282300-
CENTRAL ARKANSAS

CITY           SKY/WX    TMP DP  RH WIND       PRES   REMARKS
LITTLE ROCK    CLOUDY    73  61  65 E12       29.91F
N LITTLE ROCK    N/A     73  61  65 E9        29.92S
JACKSONVILLE   SUNNY     74  61  63 E15       29.90F
CONWAY           N/A     73  61  64 E12       29.89R
SEARCY         CLOUDY    70  60  70 E13       29.95F
HOT SPRINGS    CLOUDY    77  61  57 SE8       29.88F
RUSSELLVILLE   MOSUNNY   74  59  59 E8        29.89S
CLINTON        CLOUDY    70  57  64 VRB7G13   29.92S
$$

ARZ036-282300-
EAST ARKANSAS

CITY           SKY/WX    TMP DP  RH WIND       PRES   REMARKS
WEST MEMPHIS   SUNNY     75  60  59 N12       29.93F
$$

ARZ050-053-066-070-073-282300-
SOUTHWEST ARKANSAS

CITY           SKY/WX    TMP DP  RH WIND       PRES   REMARKS
ARKADELPHIA    CLOUDY    76  67  73 SE6       29.87F
CAMDEN         SUNNY     81  64  57 E7        29.86F
TEXARKANA      MOSUNNY   76  66  71 NE7       29.82F
EL DORADO      PTSUNNY   81  65  58 E10G18    29.85F
DE QUEEN       PTSUNNY   75  67  76 E12       29.81F
$$

ARZ056-057-069-282300-
SOUTHEAST ARKANSAS

CITY           SKY/WX    TMP DP  RH WIND       PRES   REMARKS
PINE BLUFF     MOSUNNY   78  62  57 NE8       29.89F
STUTTGART      SUNNY     75  55  50 NE10      29.93S
MONTICELLO     PTSUNNY   80  65  59 S9G16     29.88F

$$






USA.gov is the U.S. government's official web portal to all federal, state and local government web resources and services.